Location: Bosmont
(49.7318°N, 3.8587°E)
Time: 08:02:10
(UTC+00:00)

Cosmos 2184 Rocket - Pass Details

Date: 08 February 2023
Orbit: 958 x 1002 km, 82.9° (Epoch: 30 March)

Event Time Altitude Azimuth Distance (km) Brightness Sun altitude
Rises 20:14:43 0° 347° (NNW) 3,704 7.4 -33.0°
Reaches altitude 10° 20:17:18 10° 344° (NNW) 2,745 6.7 -33.4°
Enters shadow 20:23:23 56° 269° (W) 1,145 4.5 -34.4°
